Meknes, Morocco

7:50 PM WET on November 23, 2017 (GMT +0000)
Meknes

Weather History for GMFM - October, 2013

Change the Weather History Date:

Thursday, October 3, 2013

  Actual Average (GMFF) Record (GMFF)
Temperature  
Mean Temperature 76 °F -  
Max Temperature 82 °F 75 °F 95 °F (2016)
Min Temperature 69 °F 54 °F 48 °F (1996)
Cooling Degree Days 10    
Growing Degree Days 26 (Base 50)    
Moisture  
Dew Point 62 °F    
Average Humidity 61    
Maximum Humidity 73    
Minimum Humidity 38    
Precipitation  
Precipitation 0.00 in 0.07 in - ()
Sea Level Pressure  
Sea Level Pressure 29.93 in    
Wind  
Wind Speed 3 mph ()    
Max Wind Speed 9 mph    
Max Gust Speed -    
Visibility 4.2 miles    
Events      
Averages and records for this station are not official NWS values.
T = Trace of Precipitation, MM = Missing Value Source: Averaged Metar Reports

Daily Weather History Graph

Daily Weather History Graph

Search for Another Location

Airport or City:

Trip Planner

Search our weather history database for the weather conditions in past years. The results will help you decide how hot, cold, wet, or windy it might be!

Date:

Astronomy

Oct. 03, 2013 Rise Set
Actual Time 7:18 AM WEST 7:03 PM WEST
Civil Twilight 6:53 AM WEST 7:28 PM WEST
Nautical Twilight 6:24 AM WEST 7:57 PM WEST
Astronomical Twilight 5:55 AM WEST 8:26 PM WEST
Moon 5:40 AM WEST (10/3) 6:02 PM WEST (10/3)
Length of Visible Light 12h 35m
Length of Day
11h 45m
Waning Crescent, 3% of the Moon is Illuminated
Oct 3
Waning Crescent
Oct 5
New
Oct 12
First Quarter
Oct 19
Full
Oct 27
Last Quarter

Hourly Weather History & Observations

Time (WEST) Temp. Heat Index Dew Point Humidity Pressure Visibility Wind Dir Wind Speed Gust Speed Precip Events Conditions
12:00 AM 69.8 °F - 60.8 °F 73% 29.95 in 6.2 mi Calm Calm - N/A   Mostly Cloudy
1:00 AM 71 °F - 62 °F 66% 29.86 in 6 mi SE 2.3 mph - -   Mostly Cloudy
1:00 AM 71.6 °F - 62.6 °F 73% 29.95 in 6.2 mi SE 2.3 mph - N/A   Mostly Cloudy
11:00 AM 71.6 °F - 62.6 °F 73% 29.95 in 3.1 mi NW 2.3 mph - N/A   Scattered Clouds
12:00 PM 77.0 °F - 62.6 °F 61% 29.95 in 3.7 mi NW 3.5 mph - N/A   Scattered Clouds
1:00 PM 78 °F - 62 °F 48% 29.85 in 4 mi NNW 3.5 mph - -   Partly Cloudy
1:00 PM 77.0 °F - 62.6 °F 61% 29.95 in 3.7 mi NNW 3.5 mph - N/A   Scattered Clouds
2:00 PM 80.6 °F 81.8 °F 62.6 °F 54% 29.92 in 3.7 mi Calm Calm - N/A   Mostly Cloudy
3:00 PM 78.8 °F - 62.6 °F 57% 29.92 in 3.7 mi NNW 4.6 mph - N/A   Mostly Cloudy
4:00 PM 82 °F - 61 °F 38% 29.80 in 4 mi NW 3.5 mph - -   Mostly Cloudy
4:00 PM 82.4 °F 82.9 °F 60.8 °F 48% 29.92 in 3.7 mi NW 3.5 mph - N/A   Mostly Cloudy
5:00 PM 80.6 °F 81.5 °F 60.8 °F 51% 29.92 in 3.7 mi NNW 8.1 mph - N/A   Scattered Clouds
6:00 PM 78.8 °F - 60.8 °F 54% 29.92 in 3.7 mi NW 9.2 mph - N/A   Mostly Cloudy
7:00 PM 77 °F - 61 °F 49% 29.84 in 4 mi NW 8.1 mph - -   Scattered Clouds
7:00 PM 77.0 °F - 60.8 °F 57% 29.95 in 3.7 mi NW 8.1 mph - N/A   Mostly Cloudy
8:00 PM 73.4 °F - 64.4 °F 73% 29.95 in 5.0 mi West 9.2 mph - N/A   Mostly Cloudy
9:00 PM 71.6 °F - 62.6 °F 73% 30.01 in 3.7 mi West 9.2 mph - N/A   Scattered Clouds
10:00 PM 71 °F - 62 °F 67% 29.94 in 4 mi NW 6.9 mph - -   Partly Cloudy
10:00 PM 71.6 °F - 62.6 °F 73% 30.01 in 3.7 mi West 6.9 mph - N/A   Scattered Clouds
11:00 PM 71.6 °F - 62.6 °F 73% 30.04 in 3.7 mi NW 6.9 mph - N/A   Scattered Clouds